Flag for Bahamas Weather past 2 weeks in Nassau, Bahamas

Now
82 °F

Broken clouds.


Feels Like: 87 °F
Forecast: N/A
Wind: 3 mph from South

Location: Nassau Airport

Current Time: Oct 21, 2014 at 5:45:00 PM

Latest Report: Oct 21, 2014 at 5:00 PM


Visibility: N/A

Pressure: 29.91 "Hg

Humidity: 70%

Dew point: 72 °F

Location of NassauLocation

Historic Weather in Nassau — Graph

°F

Nassau temperature yesterday

Maximum temperature yesterday: 86 °F (at 11:00 AM)
Minimum temperature yesterday: 72 °F (at 5:00 AM)
Average temperature yesterday: 79 °F

Past Weeks' High & Low Weather Summary

 TemperatureHumidityPressure
High88 °F (Oct 8, 11:00 AM)100% (Oct 7, 5:00 AM)30.14 "Hg (Oct 7, 5:00 AM)
Low72 °F (Oct 18, 5:00 AM)51% (Oct 18, 12:00 PM)29.86 "Hg (Oct 16, 6:00 PM)
Average81 °F76%29.99 "Hg
* Reported Oct 6 4:00 PM — Oct 21 4:00 PM, Nassau, Weather by CustomWeather, © 2014

Note: Actual official high and low records may vary slightly from our data, if they occured in-between our weather recording intervals... More about our weather records

Advertising

Nassau weather history for previous 24 hours

 ConditionsComfort  
Time TempWeatherWind HumidityBarometerVisibility
4:00 PM
Oct 21
82 °FBroken clouds.7 mph70%29.92 "HgN/A
3:00 PM84 °FBroken clouds.3 mph66%29.93 "HgN/A
2:00 PM86 °FBroken clouds.7 mph75%29.94 "HgN/A
1:00 PM86 °FBroken clouds.6 mph59%29.96 "HgN/A
10:00 AM82 °FBroken clouds.2 mph70%29.98 "HgN/A
9:00 AM81 °FBroken clouds.No wind74%29.98 "HgN/A
8:00 AM75 °FPartly cloudy.No wind89%29.97 "HgN/A
7:00 AM75 °FPartly cloudy.No wind83%29.96 "HgN/A
6:00 AM73 °FOvercast.No wind83%29.94 "HgN/A
5:00 AM73 °FPartly cloudy.No wind100%29.93 "HgN/A
4:00 AM73 °FClear.No wind89%29.92 "Hg10 mi
3:00 AM75 °FClear.No wind78%29.93 "Hg10 mi
2:00 AM73 °FClear.No wind94%29.96 "Hg10 mi
1:00 AM75 °FClear.No wind78%29.98 "Hg10 mi
12:00 AM77 °FClear.No wind79%29.99 "Hg10 mi
11:00 PM
Oct 20
75 °FClear.No wind89%30.00 "Hg10 mi
10:00 PM77 °FPassing clouds.No wind74%30.00 "HgN/A
9:00 PM77 °FWarm.No wind74%29.99 "HgN/A
8:00 PM79 °FPassing clouds.3 mph79%29.98 "HgN/A
7:00 PM79 °FPassing clouds.2 mph70%29.96 "HgN/A
6:00 PM82 °FPassing clouds.2 mph58%29.95 "HgN/A
5:00 PM84 °FScattered clouds.6 mph70%29.96 "HgN/A
Weather by CustomWeather, © 2014

See weather overviewHow to use our weather pages